Total_Precipitation_Accumulation
1.28 1.34 1.38 1.39 1.40 1.38 1.34 1.27 1.32 1.39 1.41 1.39 1.42 1.49 1.53 1.55 1.63 1.73 1.69 1.78 1.81 1.83 1.84 1.96 2.07 2.26 2.22 2.05 2.16 2.28 2.40 2.58 2.32 2.08 2.00 1.80 1.76 1.64 1.60 1.53 1.37 1.31 1.16
1.26 1.38 1.56 1.52 1.48 1.41 1.29 1.23 1.28 1.31 1.34 1.35 1.43 1.50 1.46 1.52 1.68 1.76 1.69 1.74 1.79 1.76 1.79 1.95 1.96 2.04 2.14 2.04 2.02 2.03 2.20 2.42 2.39 2.24 2.27 2.20 2.04 1.90 1.87 1.76 1.43 1.26 1.22
1.29 1.36 1.48 1.47 1.42 1.34 1.27 1.24 1.25 1.26 1.32 1.36 1.35 1.37 1.38 1.45 1.59 1.62 1.66 1.71 1.77 1.83 1.83 1.79 1.73 1.87 2.03 2.20 2.22 2.14 2.15 2.29 2.47 2.38 2.33 2.41 2.20 2.02 2.12 1.96 1.75 1.75 1.35
1.14 1.19 1.26 1.22 1.19 1.21 1.23 1.18 1.15 1.24 1.32 1.38 1.38 1.41 1.40 1.42 1.45 1.49 1.54 1.51 1.53 1.55 1.59 1.61 1.61 1.63 1.80 2.19 2.24 2.30 2.30 2.31 2.46 2.46 2.46 2.50 2.54 2.33 2.35 2.15 2.01 1.88 1.63
1.09 1.13 1.20 1.24 1.21 1.19 1.15 1.10 1.16 1.21 1.20 1.31 1.36 1.33 1.34 1.33 1.22 1.29 1.32 1.25 1.32 1.29 1.25 1.26 1.27 1.35 1.39 1.55 1.63 1.91 2.15 2.24 2.29 2.40 2.43 2.50 2.52 2.63 2.38 2.22 2.18 2.12 1.99
0.89 0.95 1.14 1.26 1.26 1.19 1.08 1.05 1.09 1.15 1.23 1.32 1.35 1.30 1.26 1.13 1.20 1.24 1.23 1.21 1.22 1.19 1.11 1.10 1.09 1.16 1.21 1.22 1.20 1.36 1.63 1.89 2.17 2.38 2.44 2.47 2.52 2.63 2.63 2.46 2.37 2.24 2.15
0.82 0.88 0.95 1.06 1.11 1.06 0.97 0.96 1.01 1.11 1.25 1.31 1.34 1.41 1.39 1.38 1.37 1.31 1.24 1.14 1.11 1.10 1.08 1.10 0.96 0.93 1.02 0.98 1.08 1.12 1.20 1.37 1.52 1.89 2.15 2.19 2.31 2.45 2.65 2.59 2.55 2.50 2.38
0.94 0.96 0.93 0.97 1.05 1.08 1.04 1.03 1.12 1.21 1.25 1.30 1.31 1.38 1.44 1.36 1.40 1.30 1.19 1.04 1.05 1.11 1.08 1.11 1.08 1.05 1.06 1.10 1.16 1.11 1.04 1.08 1.17 1.27 1.39 1.58 1.82 2.15 2.42 2.56 2.69 2.72 2.72
0.98 0.99 0.99 1.01 1.07 1.12 1.11 1.17 1.30 1.40 1.31 1.28 1.34 1.42 1.48 1.48 1.44 1.26 1.15 1.03 1.07 1.13 1.08 1.09 1.14 1.09 1.12 1.04 1.08 1.12 1.08 1.05 1.07 1.16 1.14 1.26 1.39 1.60 1.89 2.10 2.28 2.49 2.73
1.07 1.04 1.08 1.18 1.24 1.30 1.41 1.59 1.68 1.69 1.60 1.56 1.47 1.47 1.49 1.55 1.52 1.29 1.18 1.09 1.17 1.25 1.29 1.28 1.26 1.17 1.11 1.05 1.00 1.07 1.08 1.05 1.11 1.11 1.07 1.05 1.07 1.18 1.40 1.56 1.72 1.98 2.23
1.32 1.34 1.36 1.47 1.57 1.65 1.85 1.98 2.02 2.01 2.09 2.06 1.89 1.81 1.79 1.74 1.65 1.44 1.39 1.30 1.39 1.52 1.48 1.39 1.30 1.21 1.02 0.96 0.94 0.96 0.99 1.04 1.14 1.21 1.20 1.16 1.13 1.11 1.17 1.31 1.51 1.62 1.74
1.52 1.59 1.67 1.82 1.75 1.82 2.09 2.15 2.25 2.38 2.38 2.30 2.29 2.19 2.08 2.00 1.75 1.56 1.49 1.43 1.40 1.48 1.53 1.43 1.32 1.18 0.97 0.88 0.82 0.80 0.81 0.80 0.86 0.97 1.04 1.08 1.10 1.05 1.07 1.20 1.42 1.58 1.57
1.73 1.80 1.93 2.08 2.21 2.27 2.42 2.52 2.51 2.50 2.48 2.44 2.45 2.38 2.27 2.16 1.95 1.64 1.49 1.44 1.36 1.31 1.34 1.32 1.23 1.10 0.96 0.84 0.83 0.80 0.73 0.72 0.81 0.89 0.93 1.02 1.05 1.03 1.05 1.17 1.33 1.52 1.55
1.84 1.88 2.01 2.17 2.25 2.34 2.50 2.55 2.58 2.57 2.56 2.61 2.59 2.44 2.31 2.20 2.05 1.83 1.58 1.42 1.31 1.20 1.19 1.24 1.20 1.08 0.95 0.91 0.91 0.83 0.76 0.82 0.91 0.91 0.94 1.01 1.10 1.13 1.16 1.16 1.28 1.39 1.48
1.93 2.01 2.15 2.30 2.41 2.49 2.41 2.45 2.52 2.55 2.47 2.37 2.34 2.30 2.29 2.20 2.06 1.85 1.67 1.54 1.45 1.38 1.31 1.29 1.29 1.19 1.10 1.08 1.11 1.11 1.10 1.06 1.00 0.99 1.05 1.11 1.18 1.22 1.21 1.24 1.29 1.34 1.32
2.05 2.10 2.19 2.27 2.40 2.41 2.39 2.28 2.18 2.08 2.05 1.91 1.91 1.95 1.95 1.93 1.82 1.60 1.47 1.40 1.40 1.46 1.38 1.37 1.44 1.44 1.38 1.32 1.29 1.28 1.25 1.19 1.16 1.18 1.21 1.22 1.22 1.22 1.21 1.29 1.39 1.40 1.38
2.10 2.12 2.15 2.14 2.23 2.33 2.34 2.26 2.13 1.99 1.87 1.74 1.68 1.61 1.54 1.53 1.49 1.44 1.43 1.43 1.39 1.37 1.32 1.40 1.52 1.58 1.60 1.58 1.50 1.39 1.35 1.27 1.22 1.22 1.22 1.24 1.23 1.27 1.31 1.34 1.41 1.47 1.46
2.03 2.08 2.02 2.00 2.08 2.21 2.23 2.22 2.20 2.10 2.03 1.91 1.79 1.68 1.50 1.37 1.32 1.35 1.40 1.38 1.35 1.31 1.33 1.49 1.59 1.63 1.69 1.69 1.58 1.50 1.42 1.35 1.30 1.31 1.34 1.39 1.38 1.39 1.39 1.36 1.38 1.41 1.46
1.99 1.99 2.00 2.02 2.06 2.12 2.16 2.20 2.20 2.11 2.06 1.95 1.76 1.59 1.47 1.34 1.28 1.31 1.27 1.21 1.28 1.36 1.44 1.59 1.66 1.66 1.59 1.54 1.50 1.48 1.41 1.37 1.35 1.35 1.35 1.35 1.34 1.37 1.40 1.43 1.45 1.52 1.49
1.83 1.95 2.02 1.95 1.94 1.99 2.09 2.17 2.18 2.15 2.14 2.10 1.95 1.66 1.45 1.31 1.24 1.28 1.23 1.22 1.27 1.30 1.34 1.43 1.54 1.59 1.56 1.51 1.47 1.40 1.36 1.33 1.30 1.30 1.30 1.30 1.34 1.35 1.32 1.36 1.41 1.38 1.37
1.76 1.76 1.85 1.84 1.82 1.84 1.90 1.94 1.99 1.95 1.88 1.84 1.80 1.65 1.50 1.36 1.35 1.32 1.28 1.27 1.25 1.23 1.28 1.39 1.44 1.43 1.38 1.35 1.36 1.33 1.30 1.30 1.27 1.26 1.30 1.33 1.35 1.34 1.27 1.24 1.24 1.24 1.24
1.86 1.83 1.71 1.70 1.71 1.76 1.77 1.77 1.78 1.72 1.65 1.61 1.56 1.47 1.42 1.33 1.34 1.31 1.27 1.25 1.18 1.13 1.14 1.18 1.24 1.27 1.23 1.20 1.24 1.27 1.26 1.24 1.25 1.23 1.23 1.24 1.26 1.24 1.20 1.20 1.22 1.26 1.32
1.80 1.76 1.64 1.53 1.46 1.53 1.55 1.56 1.56 1.52 1.49 1.47 1.42 1.31 1.24 1.25 1.22 1.17 1.12 1.07 1.04 1.03 1.04 1.08 1.11 1.12 1.10 1.07 1.08 1.12 1.13 1.10 1.11 1.15 1.18 1.21 1.21 1.16 1.16 1.19 1.19 1.25 1.30
1.64 1.62 1.54 1.42 1.28 1.25 1.33 1.44 1.46 1.44 1.42 1.34 1.22 1.13 1.09 1.10 1.06 0.96 0.91 0.90 0.89 0.86 0.86 0.91 0.89 0.85 0.87 0.91 0.94 0.94 0.93 0.90 0.89 0.94 0.97 1.04 1.09 1.06 1.06 1.07 1.04 1.09 1.21
1.38 1.39 1.40 1.37 1.22 1.12 1.21 1.30 1.30 1.24 1.21 1.13 1.01 0.99 0.96 0.93 0.90 0.87 0.83 0.80 0.78 0.77 0.70 0.70 0.73 0.71 0.73 0.74 0.74 0.74 0.72 0.69 0.66 0.69 0.74 0.82 0.90 0.96 0.97 0.99 1.04 1.13 1.22
1.14 1.16 1.19 1.19 1.11 1.03 1.07 1.15 1.14 1.08 1.05 0.97 0.86 0.84 0.85 0.85 0.85 0.84 0.80 0.75 0.72 0.68 0.63 0.63 0.66 0.65 0.63 0.63 0.62 0.59 0.57 0.54 0.55 0.59 0.60 0.68 0.80 0.89 0.92 0.97 0.98 1.03 1.10